Terminal Aerodrome Forecast
Issued by NWS Midland/Odessa, TX

Home | Current Version | Previous Version | Text Only | Print | Product List | Glossary On
Versions: 1 2 3 4 5 6 7 8 9 10 11 12 13 14 15 16 17 18 19 20 21 22 23 24 25 26 27 28 29
000
FTUS44 KMAF 272300
TAFMAF
TAF
KMAF 272320Z 2800/2824 33019G29KT P6SM FEW060 FEW070 OVC080
     FM280200 35017KT P6SM OVC019
     FM281200 36013KT P6SM OVC019
     FM281800 01014G24KT P6SM BKN035=

USA.gov is the U.S. government's official web portal to all federal, state and local government web resources and services.